Location: Bamazo
(6.7448°N, 10.8189°W)
Time: 01:10:49
(UTC+00:00)

Intelsat 5-1 Rocket - Pass Details

Date: 18 September 2020
Orbit: 310 x 7605 km, 23.9° (Epoch: 20 October)

Event Time Altitude Azimuth Distance (km) Brightness Sun altitude
Rises 19:46:02 0° 249° (WSW) 10,510 9.5 -16.9°
Reaches altitude 10° 19:56:17 10° 251° (WSW) 8,171 8.7 -19.5°
Maximum altitude 20:18:48 67° 331° (NNW) 1,930 4.5 -25.0°
Enters shadow 20:22:52 33° 44° (NE) 2,035 4.3 -26.0°
